SAS823 ENGM-EHAM

Flight info

Callsign SAS823
Flight time 1h 37m
Altitude 38000
Route VIPPA DCT KUGAL DCT EEL DCT BLUFA
Aircraft A320/M-SDE3FGHIJ1RWXYZ/ALB1

Departure

Time 2026-05-06 13:38
Airport Oslo-Gardermoen International Airport (ENGM)

Arrival

Time 2026-05-06 15:15
Airport Amsterdam Airport Schiphol (EHAM)
Time Latitude Longitude Altitude Speed Heading
2026-05-06 12:55 60.19641 11.10196 685 ft 0 kts 286°
2026-05-06 13:23 60.19635 11.10239 680 ft 4 kts 286°
2026-05-06 13:23 60.19630 11.10279 685 ft 0 kts 286°
2026-05-06 13:27 60.19632 11.10275 685 ft 0 kts 310°
2026-05-06 13:28 60.19638 11.10288 681 ft 2 kts 58°
2026-05-06 13:28 60.19617 11.10374 682 ft 13 kts 106°
2026-05-06 13:28 60.19692 11.10464 684 ft 15 kts 14°
2026-05-06 13:28 60.19804 11.10527 682 ft 19 kts 16°
2026-05-06 13:29 60.19935 11.10601 684 ft 19 kts
2026-05-06 13:29 60.19974 11.10510 680 ft 8 kts 288°
2026-05-06 13:29 60.19992 11.10391 685 ft 11 kts 285°
2026-05-06 13:29 60.20017 11.10214 683 ft 16 kts 286°
2026-05-06 13:30 60.20053 11.09965 685 ft 21 kts 286°
2026-05-06 13:30 60.20096 11.09663 683 ft 24 kts 286°
2026-05-06 13:30 60.20141 11.09348 679 ft 20 kts 285°
2026-05-06 13:30 60.20183 11.09052 679 ft 21 kts 286°
2026-05-06 13:31 60.20256 11.08950 681 ft 15 kts 15°
2026-05-06 13:31 60.20365 11.09012 682 ft 17 kts 16°
2026-05-06 13:31 60.20488 11.09084 682 ft 19 kts 16°
2026-05-06 13:31 60.20626 11.09163 683 ft 22 kts 16°
2026-05-06 13:32 60.20777 11.09251 684 ft 24 kts 16°
2026-05-06 13:32 60.20938 11.09344 682 ft 25 kts 16°
2026-05-06 13:32 60.21112 11.09444 684 ft 26 kts 15°
2026-05-06 13:32 60.21252 11.09525 686 ft 21 kts 16°
2026-05-06 13:33 60.21360 11.09587 687 ft 12 kts 15°
2026-05-06 13:33 60.21436 11.09630 685 ft 0 kts 16°
2026-05-06 13:33 60.21436 11.09631 685 ft 0 kts 16°
2026-05-06 13:34 60.21441 11.09633 684 ft 4 kts 15°
2026-05-06 13:34 60.21499 11.09629 685 ft 10 kts 338°
2026-05-06 13:34 60.21547 11.09505 684 ft 12 kts 287°
2026-05-06 13:35 60.21559 11.09421 684 ft 0 kts 285°
2026-05-06 13:36 60.21560 11.09412 684 ft 3 kts 285°
2026-05-06 13:36 60.21567 11.09360 682 ft 6 kts 285°
2026-05-06 13:36 60.21575 11.09249 684 ft 10 kts 265°
2026-05-06 13:37 60.21543 11.09130 684 ft 9 kts 201°
2026-05-06 13:37 60.21519 11.09116 684 ft 1 kts 195°
2026-05-06 13:37 60.21467 11.09086 684 ft 27 kts 196°
2026-05-06 13:37 60.21049 11.08846 681 ft 95 kts 196°
2026-05-06 13:38 60.20235 11.08377 675 ft 146 kts 196°
2026-05-06 13:38 60.19150 11.07739 896 ft 169 kts 196°
2026-05-06 13:38 60.18026 11.07030 1552 ft 170 kts 198°
2026-05-06 13:38 60.16926 11.06182 2176 ft 169 kts 215°
2026-05-06 13:39 60.16125 11.04519 2870 ft 165 kts 242°
2026-05-06 13:39 60.15682 11.02415 3497 ft 169 kts 249°
2026-05-06 13:39 60.15192 11.00094 3818 ft 191 kts 248°
2026-05-06 13:39 60.14644 10.97526 4064 ft 217 kts 248°
2026-05-06 13:40 60.14007 10.94592 4479 ft 241 kts 247°
2026-05-06 13:40 60.13300 10.91386 5071 ft 258 kts 246°
2026-05-06 13:40 60.12548 10.88105 6066 ft 260 kts 245°
2026-05-06 13:40 60.11770 10.84795 6729 ft 265 kts 245°
2026-05-06 13:41 60.10979 10.81451 6948 ft 266 kts 245°
2026-05-06 13:41 60.10192 10.78106 6993 ft 265 kts 245°
2026-05-06 13:41 60.09410 10.74769 6996 ft 264 kts 245°
2026-05-06 13:41 60.08628 10.71437 7103 ft 267 kts 245°
2026-05-06 13:42 60.07836 10.68054 7962 ft 268 kts 245°
2026-05-06 13:42 60.07056 10.64715 8925 ft 269 kts 245°
2026-05-06 13:42 60.06216 10.61340 9786 ft 273 kts 239°
2026-05-06 13:42 60.05023 10.58268 10282 ft 291 kts 226°
2026-05-06 13:43 60.03357 10.55736 10595 ft 311 kts 210°
2026-05-06 13:43 60.01319 10.54136 11270 ft 320 kts 196°
2026-05-06 13:43 59.99113 10.53355 12048 ft 323 kts 193°
2026-05-06 13:43 59.96891 10.52618 12841 ft 325 kts 194°
2026-05-06 13:44 59.94654 10.51863 13639 ft 327 kts 195°
2026-05-06 13:44 59.92398 10.51096 14354 ft 330 kts 195°
2026-05-06 13:44 59.90160 10.50342 15049 ft 332 kts 195°
2026-05-06 13:44 59.87878 10.49577 15734 ft 334 kts 196°
2026-05-06 13:45 59.85584 10.48813 16399 ft 335 kts 196°
2026-05-06 13:45 59.80948 10.47264 17737 ft 340 kts 197°
2026-05-06 13:45 59.78607 10.46482 18362 ft 342 kts 197°
2026-05-06 13:46 59.76250 10.45697 18968 ft 345 kts 197°
2026-05-06 13:46 59.73874 10.44914 19539 ft 347 kts 196°
2026-05-06 13:46 59.71481 10.44127 20147 ft 350 kts 196°
2026-05-06 13:46 59.69105 10.43347 20740 ft 352 kts 197°
2026-05-06 13:47 59.66686 10.42553 21355 ft 354 kts 197°
2026-05-06 13:47 59.64253 10.41756 21961 ft 356 kts 197°
2026-05-06 13:47 59.61802 10.40953 22553 ft 358 kts 197°
2026-05-06 13:47 59.59343 10.40143 23146 ft 360 kts 197°
2026-05-06 13:48 59.56870 10.39324 23689 ft 361 kts 197°
2026-05-06 13:48 59.54385 10.38485 24157 ft 363 kts 197°
2026-05-06 13:48 59.51892 10.37631 24626 ft 365 kts 197°
2026-05-06 13:48 59.49390 10.36778 25103 ft 366 kts 197°
2026-05-06 13:49 59.46874 10.35929 25531 ft 367 kts 197°
2026-05-06 13:49 59.44384 10.35092 25965 ft 369 kts 197°
2026-05-06 13:49 59.41851 10.34240 26417 ft 370 kts 197°
2026-05-06 13:49 59.39307 10.33382 26872 ft 372 kts 197°
2026-05-06 13:50 59.36749 10.32518 27298 ft 373 kts 197°
2026-05-06 13:50 59.34183 10.31656 27730 ft 375 kts 197°
2026-05-06 13:50 59.31605 10.30799 28168 ft 377 kts 197°
2026-05-06 13:50 59.29017 10.29935 28580 ft 378 kts 197°
2026-05-06 13:51 59.26417 10.29071 28981 ft 380 kts 197°
2026-05-06 13:51 59.23802 10.28204 29393 ft 382 kts 197°
2026-05-06 13:51 59.21216 10.27347 29800 ft 383 kts 197°
2026-05-06 13:51 59.18576 10.26477 30107 ft 385 kts 196°
2026-05-06 13:52 59.15902 10.25775 30407 ft 392 kts 191°
2026-05-06 13:52 59.13171 10.25391 30714 ft 395 kts 191°
2026-05-06 13:52 59.10425 10.25017 31026 ft 397 kts 191°
2026-05-06 13:52 59.07662 10.24652 31391 ft 398 kts 191°
2026-05-06 13:53 59.04905 10.24294 31842 ft 396 kts 191°
2026-05-06 13:53 59.02160 10.23930 32267 ft 395 kts 191°
2026-05-06 13:53 58.99424 10.23562 32723 ft 394 kts 191°
2026-05-06 13:53 58.96697 10.23195 33178 ft 392 kts 192°
2026-05-06 13:54 58.94064 10.22458 33623 ft 384 kts 200°
2026-05-06 13:54 58.91550 10.20885 34044 ft 377 kts 206°
2026-05-06 13:54 58.89104 10.19062 34325 ft 377 kts 206°
2026-05-06 13:54 58.86649 10.17241 34603 ft 379 kts 206°
2026-05-06 13:55 58.84179 10.15417 34846 ft 381 kts 206°
2026-05-06 13:55 58.81691 10.13585 35079 ft 383 kts 206°
2026-05-06 13:55 58.79193 10.11754 35323 ft 385 kts 206°
2026-05-06 13:55 58.76718 10.09940 35553 ft 387 kts 206°
2026-05-06 13:56 58.74199 10.08094 35790 ft 388 kts 206°
2026-05-06 13:56 58.71669 10.06243 36019 ft 390 kts 205°
2026-05-06 13:56 58.69125 10.04379 36244 ft 392 kts 205°
2026-05-06 13:56 58.66576 10.02512 36468 ft 393 kts 205°
2026-05-06 13:57 58.64015 10.00643 36662 ft 395 kts 205°
2026-05-06 13:57 58.61445 9.98773 36870 ft 396 kts 205°
2026-05-06 13:57 58.58862 9.96902 37090 ft 397 kts 205°
2026-05-06 13:57 58.56309 9.95054 37298 ft 398 kts 205°
2026-05-06 13:58 58.53713 9.93178 37511 ft 400 kts 205°
2026-05-06 13:58 58.51111 9.91295 37716 ft 401 kts 205°
2026-05-06 13:58 58.48500 9.89411 37917 ft 402 kts 205°
2026-05-06 13:58 58.45870 9.87520 37981 ft 404 kts 205°
2026-05-06 13:59 58.40592 9.83740 37986 ft 406 kts 205°
2026-05-06 13:59 58.35308 9.79959 37986 ft 406 kts 205°
2026-05-06 14:00 58.30052 9.76207 37988 ft 406 kts 205°
2026-05-06 14:00 58.24769 9.72442 37988 ft 406 kts 205°
2026-05-06 14:01 58.19479 9.68679 37991 ft 406 kts 205°
2026-05-06 14:01 58.14185 9.64945 37991 ft 406 kts 204°
2026-05-06 14:02 58.08922 9.61241 37973 ft 406 kts 204°
2026-05-06 14:02 58.03621 9.57514 37984 ft 406 kts 204°
2026-05-06 14:03 57.98324 9.53799 37987 ft 406 kts 204°
2026-05-06 14:03 57.93026 9.50095 37988 ft 406 kts 204°
2026-05-06 14:04 57.87758 9.46421 38003 ft 406 kts 204°
2026-05-06 14:04 57.82455 9.42752 37975 ft 406 kts 204°
2026-05-06 14:05 57.77147 9.39090 37990 ft 406 kts 204°
2026-05-06 14:05 57.71843 9.35444 37994 ft 406 kts 204°
2026-05-06 14:06 57.66577 9.31817 37995 ft 406 kts 204°
2026-05-06 14:06 57.61272 9.28170 37995 ft 406 kts 204°
2026-05-06 14:07 57.55966 9.24551 37966 ft 406 kts 204°
2026-05-06 14:07 57.50655 9.20941 37977 ft 406 kts 204°
2026-05-06 14:08 57.45382 9.17365 37981 ft 406 kts 204°
2026-05-06 14:08 57.40074 9.13771 37986 ft 406 kts 204°
2026-05-06 14:09 57.34759 9.10181 37986 ft 406 kts 204°
2026-05-06 14:09 57.29445 9.06603 37970 ft 406 kts 203°
2026-05-06 14:10 57.24165 9.03074 37978 ft 406 kts 203°
2026-05-06 14:10 57.18851 8.99520 37984 ft 406 kts 203°
2026-05-06 14:11 57.13535 8.95977 37987 ft 406 kts 203°
2026-05-06 14:11 57.08213 8.92442 37989 ft 406 kts 203°
2026-05-06 14:12 57.02927 8.88943 37958 ft 407 kts 203°
2026-05-06 14:12 56.97602 8.85428 37968 ft 407 kts 203°
2026-05-06 14:13 56.92269 8.81927 37986 ft 407 kts 203°
2026-05-06 14:13 56.86933 8.78421 37981 ft 408 kts 203°
2026-05-06 14:14 56.81628 8.74937 37977 ft 408 kts 203°
2026-05-06 14:14 56.76276 8.71442 37957 ft 408 kts 202°
2026-05-06 14:15 56.70923 8.67965 37962 ft 409 kts 202°
2026-05-06 14:15 56.65561 8.64491 37968 ft 409 kts 202°
2026-05-06 14:16 56.60236 8.61055 37963 ft 409 kts 202°
2026-05-06 14:16 56.54875 8.57599 37974 ft 409 kts 202°
2026-05-06 14:17 56.49509 8.54146 37971 ft 409 kts 202°
2026-05-06 14:17 56.44179 8.50735 37967 ft 409 kts 202°
2026-05-06 14:18 56.38808 8.47301 37966 ft 409 kts 202°
2026-05-06 14:18 56.33439 8.43882 37970 ft 409 kts 202°
2026-05-06 14:19 56.28067 8.40457 37940 ft 409 kts 202°
2026-05-06 14:19 56.22728 8.37082 37948 ft 410 kts 202°
2026-05-06 14:20 56.17344 8.33698 37954 ft 410 kts 202°
2026-05-06 14:20 56.11963 8.30314 37960 ft 410 kts 202°
2026-05-06 14:21 56.06577 8.26933 37961 ft 410 kts 202°
2026-05-06 14:21 56.01192 8.23559 37943 ft 410 kts 202°
2026-05-06 14:22 55.95836 8.20211 37953 ft 410 kts 202°
2026-05-06 14:22 55.90443 8.16854 37959 ft 411 kts 202°
2026-05-06 14:23 55.85041 8.13510 37975 ft 411 kts 202°
2026-05-06 14:23 55.79642 8.10171 37969 ft 411 kts 202°
2026-05-06 14:24 55.74276 8.06863 37973 ft 411 kts 202°
2026-05-06 14:24 55.68870 8.03543 37974 ft 411 kts 202°
2026-05-06 14:25 55.63462 8.00224 37977 ft 411 kts 202°
2026-05-06 14:25 55.58092 7.96945 37974 ft 411 kts 201°
2026-05-06 14:26 55.52683 7.93666 37954 ft 411 kts 201°
2026-05-06 14:26 55.47271 7.90375 37956 ft 411 kts 201°
2026-05-06 14:27 55.41861 7.87089 37961 ft 412 kts 201°
2026-05-06 14:27 55.36438 7.83822 37964 ft 412 kts 201°
2026-05-06 14:28 55.31056 7.80577 37963 ft 412 kts 201°
2026-05-06 14:28 55.25632 7.77309 37951 ft 412 kts 201°
2026-05-06 14:29 55.20209 7.74056 37952 ft 412 kts 201°
2026-05-06 14:29 55.14772 7.70825 37956 ft 413 kts 201°
2026-05-06 14:30 55.09372 7.67626 37968 ft 413 kts 201°
2026-05-06 14:30 55.03933 7.64398 37966 ft 413 kts 201°
2026-05-06 14:31 54.98482 7.61180 37953 ft 414 kts 200°
2026-05-06 14:31 54.93026 7.58178 37955 ft 414 kts 199°
2026-05-06 14:32 54.87505 7.55254 37956 ft 415 kts 199°
2026-05-06 14:32 54.81992 7.52314 37957 ft 415 kts 199°
2026-05-06 14:33 54.76481 7.49341 37937 ft 415 kts 199°
2026-05-06 14:33 54.71006 7.46388 37941 ft 415 kts 199°
2026-05-06 14:34 54.65490 7.43437 37949 ft 415 kts 199°
2026-05-06 14:34 54.59965 7.40500 37947 ft 415 kts 199°
2026-05-06 14:35 54.54441 7.37565 37951 ft 415 kts 199°
2026-05-06 14:35 54.48914 7.34625 37940 ft 416 kts 199°
2026-05-06 14:36 54.43388 7.31694 37942 ft 416 kts 199°
2026-05-06 14:36 54.37890 7.28794 37941 ft 416 kts 199°
2026-05-06 14:37 54.32360 7.25877 37940 ft 416 kts 199°
2026-05-06 14:37 54.26824 7.22961 37935 ft 416 kts 199°
2026-05-06 14:38 54.21284 7.20067 37932 ft 417 kts 199°
2026-05-06 14:38 54.15771 7.17192 37934 ft 417 kts 199°
2026-05-06 14:39 54.10221 7.14296 37937 ft 417 kts 199°
2026-05-06 14:39 54.04661 7.11416 37940 ft 418 kts 199°
2026-05-06 14:40 53.99098 7.08543 37924 ft 418 kts 199°
2026-05-06 14:40 53.93535 7.05664 37925 ft 418 kts 199°
2026-05-06 14:41 53.87961 7.02798 37930 ft 418 kts 199°
2026-05-06 14:41 53.82428 6.99962 37933 ft 419 kts 199°
2026-05-06 14:42 53.76851 6.97113 37924 ft 419 kts 199°
2026-05-06 14:42 53.71270 6.94265 37929 ft 419 kts 199°
2026-05-06 14:43 53.65678 6.91417 36717 ft 425 kts 198°
2026-05-06 14:43 53.62816 6.89964 35320 ft 431 kts 198°
2026-05-06 14:43 53.59960 6.88516 34338 ft 426 kts 198°
2026-05-06 14:44 53.57184 6.87113 33455 ft 418 kts 198°
2026-05-06 14:44 53.54421 6.85718 32502 ft 411 kts 197°
2026-05-06 14:44 53.51716 6.84350 31896 ft 398 kts 197°
2026-05-06 14:45 53.46622 6.81776 31092 ft 368 kts 197°
2026-05-06 14:45 53.44211 6.80566 30701 ft 356 kts 197°
2026-05-06 14:45 53.41872 6.79395 30336 ft 345 kts 196°
2026-05-06 14:45 53.39588 6.78251 29969 ft 343 kts 196°
2026-05-06 14:46 53.37310 6.77108 29583 ft 341 kts 196°
2026-05-06 14:46 53.35042 6.75967 29241 ft 341 kts 197°
2026-05-06 14:46 53.32775 6.74828 28884 ft 339 kts 197°
2026-05-06 14:46 53.30527 6.73701 28551 ft 336 kts 197°
2026-05-06 14:47 53.28284 6.72580 28219 ft 336 kts 197°
2026-05-06 14:47 53.26050 6.71466 27884 ft 333 kts 197°
2026-05-06 14:47 53.23860 6.70379 27540 ft 331 kts 197°
2026-05-06 14:47 53.21661 6.69288 27208 ft 329 kts 197°
2026-05-06 14:48 53.19473 6.68203 26871 ft 328 kts 197°
2026-05-06 14:48 53.17294 6.67077 26517 ft 327 kts 201°
2026-05-06 14:48 53.15241 6.65480 26162 ft 325 kts 211°
2026-05-06 14:48 53.13326 6.63500 25826 ft 323 kts 212°
2026-05-06 14:49 53.11426 6.61536 25452 ft 321 kts 212°
2026-05-06 14:49 53.09529 6.59590 25089 ft 319 kts 212°
2026-05-06 14:49 53.07641 6.57662 24727 ft 318 kts 212°
2026-05-06 14:49 53.05780 6.55769 24337 ft 317 kts 212°
2026-05-06 14:50 53.03900 6.53861 23975 ft 316 kts 213°
2026-05-06 14:50 53.02024 6.51958 23601 ft 316 kts 213°
2026-05-06 14:50 53.00150 6.50056 23184 ft 316 kts 213°
2026-05-06 14:50 52.98283 6.48161 22803 ft 314 kts 213°
2026-05-06 14:51 52.96427 6.46276 22430 ft 311 kts 213°
2026-05-06 14:51 52.94584 6.44409 22058 ft 310 kts 213°
2026-05-06 14:51 52.92750 6.42554 21686 ft 308 kts 213°
2026-05-06 14:51 52.90920 6.40708 21315 ft 307 kts 213°
2026-05-06 14:52 52.89097 6.38872 20948 ft 306 kts 212°
2026-05-06 14:52 52.87305 6.37067 20580 ft 305 kts 213°
2026-05-06 14:52 52.85494 6.35238 20219 ft 304 kts 214°
2026-05-06 14:52 52.83822 6.33128 19842 ft 302 kts 224°
2026-05-06 14:53 52.82444 6.30533 19467 ft 301 kts 235°
2026-05-06 14:53 52.81255 6.27679 19113 ft 301 kts 235°
2026-05-06 14:53 52.80078 6.24875 18750 ft 301 kts 235°
2026-05-06 14:53 52.78866 6.21998 18377 ft 301 kts 235°
2026-05-06 14:54 52.77668 6.19154 17980 ft 302 kts 235°
2026-05-06 14:54 52.76470 6.16315 17600 ft 301 kts 235°
2026-05-06 14:54 52.75275 6.13491 17234 ft 300 kts 235°
2026-05-06 14:54 52.74085 6.10674 16869 ft 299 kts 235°
2026-05-06 14:55 52.72900 6.07869 16507 ft 297 kts 236°
2026-05-06 14:55 52.71719 6.05077 16147 ft 296 kts 236°
2026-05-06 14:55 52.70550 6.02320 15781 ft 288 kts 236°
2026-05-06 14:55 52.69395 5.99604 15396 ft 297 kts 236°
2026-05-06 14:56 52.68199 5.96783 14942 ft 302 kts 236°
2026-05-06 14:56 52.66992 5.93946 14501 ft 301 kts 237°
2026-05-06 14:56 52.65812 5.91175 14063 ft 299 kts 237°
2026-05-06 14:56 52.64619 5.88376 13629 ft 298 kts 236°
2026-05-06 14:57 52.63428 5.85585 13146 ft 297 kts 236°
2026-05-06 14:57 52.62244 5.82808 12665 ft 296 kts 236°
2026-05-06 14:57 52.61063 5.80043 12191 ft 295 kts 237°
2026-05-06 14:57 52.59884 5.77290 11834 ft 295 kts 236°
2026-05-06 14:58 52.58705 5.74536 11574 ft 293 kts 236°
2026-05-06 14:58 52.57933 5.72735 11407 ft 293 kts 236°
2026-05-06 14:58 52.56737 5.69948 11151 ft 293 kts 236°
2026-05-06 14:58 52.55564 5.67222 10897 ft 292 kts 236°
2026-05-06 14:59 52.54392 5.64505 10651 ft 291 kts 236°
2026-05-06 14:59 52.53224 5.61797 10398 ft 290 kts 236°
2026-05-06 14:59 52.52073 5.59123 10148 ft 285 kts 235°
2026-05-06 14:59 52.51040 5.56358 9833 ft 284 kts 246°
2026-05-06 15:00 52.50362 5.53335 9743 ft 284 kts 251°
2026-05-06 15:00 52.49719 5.50297 9642 ft 287 kts 251°
2026-05-06 15:00 52.49055 5.47208 9523 ft 288 kts 251°
2026-05-06 15:00 52.48381 5.44103 9418 ft 290 kts 252°
2026-05-06 15:01 52.47707 5.40994 9307 ft 289 kts 252°
2026-05-06 15:01 52.47033 5.37881 9194 ft 289 kts 252°
2026-05-06 15:01 52.46360 5.34775 9078 ft 289 kts 252°
2026-05-06 15:01 52.45685 5.31666 8974 ft 290 kts 252°
2026-05-06 15:02 52.45007 5.28556 8851 ft 289 kts 251°
2026-05-06 15:02 52.44330 5.25457 8736 ft 289 kts 251°
2026-05-06 15:02 52.43663 5.22403 8626 ft 287 kts 251°
2026-05-06 15:02 52.42990 5.19320 8509 ft 288 kts 251°
2026-05-06 15:03 52.42316 5.16231 8391 ft 288 kts 251°
2026-05-06 15:03 52.41639 5.13133 8287 ft 289 kts 251°
2026-05-06 15:03 52.40965 5.10040 8191 ft 288 kts 251°
2026-05-06 15:03 52.40291 5.06961 8075 ft 287 kts 251°
2026-05-06 15:04 52.39618 5.03901 7962 ft 285 kts 251°
2026-05-06 15:04 52.38944 5.00843 7859 ft 286 kts 251°
2026-05-06 15:04 52.38269 4.97782 7745 ft 286 kts 251°
2026-05-06 15:04 52.37593 4.94719 7642 ft 287 kts 251°
2026-05-06 15:05 52.36917 4.91655 7519 ft 285 kts 251°
2026-05-06 15:05 52.36246 4.88612 7415 ft 284 kts 251°
2026-05-06 15:05 52.35573 4.85582 7306 ft 284 kts 251°
2026-05-06 15:05 52.34899 4.82556 7186 ft 281 kts 251°
2026-05-06 15:06 52.34247 4.79641 7070 ft 272 kts 251°
2026-05-06 15:06 52.33629 4.76769 6947 ft 263 kts 258°
2026-05-06 15:06 52.33447 4.73887 6914 ft 250 kts 276°
2026-05-06 15:06 52.33754 4.71125 6917 ft 246 kts 285°
2026-05-06 15:07 52.34145 4.68400 6892 ft 247 kts 286°
2026-05-06 15:07 52.34443 4.65637 6871 ft 248 kts 275°
2026-05-06 15:07 52.34228 4.62827 6521 ft 252 kts 252°
2026-05-06 15:07 52.33395 4.60123 6189 ft 252 kts 237°
2026-05-06 15:08 52.32503 4.57842 5826 ft 254 kts 238°
2026-05-06 15:08 52.31557 4.55403 5477 ft 255 kts 238°
2026-05-06 15:08 52.30605 4.52947 5150 ft 256 kts 238°
2026-05-06 15:08 52.29650 4.50481 4827 ft 256 kts 238°
2026-05-06 15:09 52.28700 4.48032 4512 ft 255 kts 238°
2026-05-06 15:09 52.27742 4.45625 4140 ft 250 kts 231°
2026-05-06 15:09 52.26404 4.43963 3585 ft 245 kts 195°
2026-05-06 15:09 52.24783 4.43754 3228 ft 227 kts 162°
2026-05-06 15:10 52.23427 4.44747 3027 ft 205 kts 142°
2026-05-06 15:10 52.22345 4.46108 2807 ft 189 kts 128°
2026-05-06 15:10 52.21602 4.47731 2707 ft 169 kts 112°
2026-05-06 15:10 52.21160 4.49435 2623 ft 160 kts 100°
2026-05-06 15:11 52.21000 4.51179 2551 ft 153 kts 85°
2026-05-06 15:11 52.21116 4.52868 2481 ft 149 kts 72°
2026-05-06 15:11 52.21536 4.54387 2413 ft 147 kts 59°
2026-05-06 15:11 52.22044 4.55831 2348 ft 147 kts 57°
2026-05-06 15:12 52.22576 4.57262 2269 ft 148 kts 56°
2026-05-06 15:12 52.23116 4.58685 2129 ft 147 kts 56°
2026-05-06 15:12 52.23650 4.60078 1953 ft 146 kts 56°
2026-05-06 15:12 52.24188 4.61474 1757 ft 145 kts 56°
2026-05-06 15:13 52.24729 4.62876 1576 ft 144 kts 56°
2026-05-06 15:13 52.25260 4.64253 1374 ft 144 kts 55°
2026-05-06 15:13 52.25772 4.65581 1170 ft 130 kts 54°
2026-05-06 15:13 52.26242 4.66799 1004 ft 124 kts 54°
2026-05-06 15:14 52.26696 4.67978 827 ft 122 kts 54°
2026-05-06 15:14 52.27140 4.69124 676 ft 121 kts 56°
2026-05-06 15:14 52.27589 4.70294 520 ft 123 kts 54°
2026-05-06 15:14 52.28039 4.71462 363 ft 122 kts 57°
2026-05-06 15:15 52.28492 4.72635 198 ft 124 kts 58°
2026-05-06 15:15 52.28949 4.73822 38 ft 123 kts 59°
2026-05-06 15:15 52.29366 4.74911 -2 ft 93 kts 58°
2026-05-06 15:15 52.29618 4.75567 -1 ft 44 kts 58°
2026-05-06 15:16 52.29742 4.75890 -2 ft 31 kts 58°
2026-05-06 15:16 52.29861 4.76198 -3 ft 33 kts 58°
2026-05-06 15:16 52.29987 4.76491 -2 ft 25 kts 41°
2026-05-06 15:16 52.30119 4.76617 -1 ft 18 kts 28°
2026-05-06 15:17 52.30186 4.76676 -1 ft 10 kts 28°
2026-05-06 15:17 52.30251 4.76732 -1 ft 12 kts 26°
2026-05-06 15:17 52.30335 4.76712 -1 ft 14 kts 314°
2026-05-06 15:17 52.30379 4.76568 -1 ft 14 kts 325°
2026-05-06 15:18 52.30465 4.76479 -1 ft 15 kts 328°
2026-05-06 15:18 52.30513 4.76457 -1 ft 6 kts 28°
2026-05-06 15:18 52.30536 4.76512 -1 ft 2 kts 58°
2026-05-06 15:18 52.30540 4.76521 -1 ft 0 kts 58°